Location: Campillo
(40.8621°N, 4.2488°W)
Time: 13:15:57
(UTC+00:00)

Cosmos 2181 Rocket - Pass Details

Date: 11 May 2021
Orbit: 952 x 1014 km, 82.9° (Epoch: 14 June)

Event Time Altitude Azimuth Distance (km) Brightness Sun altitude
Exits shadow 23:29:25 70° 272° (W) 1,021 4.0 -30.1°
Maximum altitude 23:29:31 70° 278° (W) 1,020 4.0 -30.1°
Drops below altitude 10° 23:35:39 10° 3° (N) 2,691 7.2 -30.4°
Sets 23:38:10 0° 6° (N) 3,638 8.1 -30.4°
